User: anonymous   Login
Location: Betra
(48.4113°N, 8.6634°E)
Time: 08:31:36
(UTC+00:00)
Language:

Cosmos 2181 Rocket - Orbit

View from above orbital plane
View from above orbital plane
View from above satellite
View from above satellite

Ground track
Ground track

The orbit data is extracted from the following two-line orbital elements,

1 21903U 92012B   24202.86876269  .00000100  00000-0  87975-4 0  9992
2 21903  82.9351  64.5533 0044033  72.1591 298.4832 13.74659758623204
Epoch (UTC): 20 July 2024 20:51:01
Eccentricity: 0.0044033
inclination: 82.9351°
perigee height: 950 km
apogee height: 1015 km
right ascension of ascending node: 64.5533°
argument of perigee: 72.1591°
revolutions per day: 13.74659758
mean anomaly at epoch: 298.4832°
orbit number at epoch: 62320

The dashed part of the orbit path shows where the satellite is in the earth's shadow,  

DLR